Log in Register

Login to your account

Username *
Password *
Remember Me

Create an account

Fields marked with an asterisk (*) are required.
Name *
Username *
Password *
Verify password *
Email *
Verify email *
Captcha *
C'est avec un grand plaisir que nous venons de réceptionner à l'Aéroclub de Savoie conjointement avec le CLAP et avec l'aide de la FFA un avion électrique Pipistrel VELIS !!
C'est parti pour des vols silencieux et sans essence !
 
Les vols de découverte et le début de formation sur cet avion novateur sont possibles !
 
 
 
20220301 170826
 

Nous contacter

 Téléphone : +33 (0)4 79 54 41 81

Coordonnées détaillées et accès : cliquez ici

facebook 770688 960 720  logo instagram large

[source: ADDS]
METAR / TAF
LFLB 042200Z AUTO VRB02KT 9999 FEW050 SCT130 BKN150 22/17 Q1019 =
TAF LFLB 041400Z 0415/0515 33004KT 9999 SCT090 TEMPO 0415/0424 SCT090TCU PROB40 TEMPO 0415/0424 -SHRA FEW080CB SCT090TCU PROB30 TEMPO 0415/0424 VRB15G25KT 4000 TSRA BKN070CB BECMG 0418/0420 VRB02KT BECMG 0507/0509 04007KT

SR / SS: 03:53 / 19:28 UTC (Lever/Coucher du soleil le 2022-07-05)
JSN Boot template designed by JoomlaShine.com